Hourly Weather Al Kharj

Today, 3 March, Wednesday

Time Temperature Precipitation Wind Pressure Humidity
00:00 +19°C° 0 mm 4 mps 725 mmHg 41%
01:00 +18°C° 0 mm 4 mps 725 mmHg 47%
02:00 +17°C° 0 mm 3 mps 724 mmHg 52%
03:00 +16°C° 0 mm 3 mps 724 mmHg 55%
04:00 +16°C° 0 mm 3 mps 724 mmHg 54%
05:00 +16°C° 0 mm 3 mps 725 mmHg 54%
06:00 +16°C° 0 mm 3 mps 725 mmHg 53%
07:00 +17°C° 0 mm 3 mps 725 mmHg 45%
08:00 +19°C° 0 mm 4 mps 726 mmHg 37%
09:00 +20°C° 0 mm 5 mps 726 mmHg 29%
10:00 +22°C° 0 mm 5 mps 726 mmHg 26%
11:00 +25°C° 0 mm 5 mps 725 mmHg 23%
12:00 +28°C° 0 mm 5 mps 725 mmHg 19%
13:00 +29°C° 0 mm 5 mps 725 mmHg 18%
14:00 +30°C° 0 mm 5 mps 724 mmHg 17%
15:00 +32°C° 0 mm 5 mps 723 mmHg 16%
16:00 +29°C° 0 mm 5 mps 723 mmHg 18%
17:00 +28°C° 0 mm 5 mps 723 mmHg 20%
18:00 +26°C° 0 mm 5 mps 723 mmHg 21%
19:00 +25°C° 0 mm 4 mps 724 mmHg 23%
20:00 +23°C° 0 mm 4 mps 724 mmHg 26%
21:00 +22°C° 0 mm 4 mps 724 mmHg 28%
22:00 +21°C° 0 mm 4 mps 724 mmHg 30%
23:00 +20°C° 0 mm 5 mps 724 mmHg 32%

Tomorrow, 4 March, Thursday

Time Temperature Precipitation Wind Pressure Humidity
00:00 +19°C° 0 mm 5 mps 723 mmHg 34%
01:00 +18°C° 0 mm 4 mps 723 mmHg 36%
02:00 +18°C° 0 mm 3 mps 722 mmHg 38%
03:00 +17°C° 0 mm 3 mps 722 mmHg 39%
04:00 +16°C° 0 mm 3 mps 722 mmHg 40%
05:00 +16°C° 0 mm 2 mps 722 mmHg 41%
06:00 +15°C° 0 mm 2 mps 723 mmHg 42%
07:00 +18°C° 0 mm 3 mps 723 mmHg 37%
08:00 +20°C° 0 mm 4 mps 723 mmHg 32%
09:00 +22°C° 0 mm 4 mps 724 mmHg 27%
10:00 +26°C° 0 mm 5 mps 724 mmHg 23%
11:00 +29°C° 0 mm 6 mps 723 mmHg 20%
12:00 +33°C° 0 mm 7 mps 723 mmHg 16%
13:00 +34°C° 0 mm 7 mps 722 mmHg 15%
14:00 +35°C° 0 mm 8 mps 721 mmHg 13%
15:00 +37°C° 0 mm 8 mps 721 mmHg 12%
16:00 +35°C° 0 mm 7 mps 720 mmHg 13%
17:00 +33°C° 0 mm 5 mps 720 mmHg 15%
18:00 +30°C° 0 mm 4 mps 720 mmHg 17%
19:00 +29°C° 0 mm 4 mps 721 mmHg 18%
20:00 +29°C° 0 mm 4 mps 721 mmHg 19%
21:00 +28°C° 0 mm 5 mps 721 mmHg 20%
22:00 +27°C° 0 mm 5 mps 721 mmHg 20%
23:00 +27°C° 0 mm 5 mps 721 mmHg 20%

Day after tomorrow, 5 March, Friday

Time Temperature Precipitation Wind Pressure Humidity
00:00 +26°C° 0 mm 5 mps 721 mmHg 21%
01:00 +25°C° 0 mm 4 mps 721 mmHg 21%
02:00 +24°C° 0 mm 3 mps 721 mmHg 22%
03:00 +23°C° 0 mm 2 mps 720 mmHg 23%
04:00 +24°C° 0 mm 3 mps 721 mmHg 23%
05:00 +24°C° 0 mm 3 mps 722 mmHg 24%
06:00 +23°C° 0 mm 4 mps 723 mmHg 24%
07:00 +23°C° 0 mm 5 mps 724 mmHg 25%
08:00 +23°C° 0 mm 6 mps 724 mmHg 26%
09:00 +23°C° 0 mm 7 mps 725 mmHg 27%
10:00 +26°C° 0 mm 7 mps 725 mmHg 23%
11:00 +27°C° 0 mm 7 mps 725 mmHg 20%
12:00 +28°C° 0 mm 7 mps 725 mmHg 17%
13:00 +29°C° 0 mm 7 mps 725 mmHg 16%
14:00 +29°C° 0 mm 6 mps 724 mmHg 14%
15:00 +30°C° 0 mm 6 mps 724 mmHg 13%
16:00 +28°C° 0 mm 6 mps 724 mmHg 13%
17:00 +27°C° 0 mm 6 mps 725 mmHg 14%
18:00 +24°C° 0 mm 6 mps 725 mmHg 15%
19:00 +23°C° 0 mm 6 mps 726 mmHg 16%
20:00 +22°C° 0 mm 6 mps 726 mmHg 17%
21:00 +21°C° 0 mm 6 mps 727 mmHg 18%
22:00 +20°C° 0 mm 6 mps 727 mmHg 22%
23:00 +19°C° 0 mm 6 mps 727 mmHg 26%

6 March, Saturday

Time Temperature Precipitation Wind Pressure Humidity
00:00 +17°C° 0 mm 6 mps 727 mmHg 30%
01:00 +17°C° 0 mm 5 mps 726 mmHg 32%
02:00 +16°C° 0 mm 5 mps 726 mmHg 35%
03:00 +15°C° 0 mm 4 mps 726 mmHg 38%
04:00 +15°C° 0 mm 4 mps 726 mmHg 41%
05:00 +15°C° 0 mm 4 mps 727 mmHg 44%
06:00 +14°C° 0 mm 4 mps 727 mmHg 47%
07:00 +16°C° 0 mm 5 mps 728 mmHg 43%
08:00 +17°C° 0 mm 6 mps 729 mmHg 39%
09:00 +20°C° 0 mm 7 mps 729 mmHg 35%
10:00 +21°C° 0 mm 7 mps 729 mmHg 29%
11:00 +23°C° 0 mm 6 mps 728 mmHg 23%
12:00 +24°C° 0 mm 6 mps 728 mmHg 17%
13:00 +26°C° 0 mm 6 mps 727 mmHg 15%
14:00 +27°C° 0 mm 5 mps 727 mmHg 13%
15:00 +28°C° 0 mm 5 mps 726 mmHg 11%
16:00 +26°C° 0 mm 4 mps 726 mmHg 12%
17:00 +25°C° 0 mm 4 mps 726 mmHg 13%
18:00 +22°C° 0 mm 3 mps 726 mmHg 13%
19:00 +21°C° 0 mm 3 mps 727 mmHg 14%
20:00 +20°C° 0 mm 3 mps 727 mmHg 16%
21:00 +20°C° 0 mm 3 mps 727 mmHg 17%
22:00 +19°C° 0 mm 3 mps 727 mmHg 18%
23:00 +18°C° 0 mm 3 mps 727 mmHg 20%

7 March, Sunday

Time Temperature Precipitation Wind Pressure Humidity
00:00 +17°C° 0 mm 2 mps 726 mmHg 21%
01:00 +16°C° 0 mm 2 mps 726 mmHg 23%
02:00 +15°C° 0 mm 2 mps 725 mmHg 24%
03:00 +14°C° 0 mm 2 mps 725 mmHg 26%
04:00 +14°C° 0 mm 2 mps 725 mmHg 26%
05:00 +14°C° 0 mm 2 mps 725 mmHg 27%
06:00 +14°C° 0 mm 2 mps 725 mmHg 28%
07:00 +16°C° 0 mm 3 mps 726 mmHg 25%
08:00 +18°C° 0 mm 3 mps 727 mmHg 21%
09:00 +20°C° 0 mm 4 mps 727 mmHg 18%
10:00 +22°C° 0 mm 4 mps 727 mmHg 16%
11:00 +25°C° 0 mm 3 mps 726 mmHg 13%
12:00 +27°C° 0 mm 3 mps 726 mmHg 11%
13:00 +28°C° 0 mm 3 mps 725 mmHg 11%
14:00 +29°C° 0 mm 3 mps 724 mmHg 11%
15:00 +30°C° 0 mm 3 mps 724 mmHg 11%
16:00 +28°C° 0 mm 3 mps 723 mmHg 12%
17:00 +26°C° 0 mm 3 mps 723 mmHg 13%
18:00 +25°C° 0 mm 2 mps 723 mmHg 15%
19:00 +24°C° 0 mm 3 mps 723 mmHg 15%
20:00 +22°C° 0 mm 3 mps 724 mmHg 15%
21:00 +21°C° 0 mm 3 mps 724 mmHg 15%
22:00 +20°C° 0 mm 3 mps 723 mmHg 16%
23:00 +19°C° 0 mm 2 mps 723 mmHg 16%

8 March, Monday

Time Temperature Precipitation Wind Pressure Humidity
00:00 +18°C° 0 mm 2 mps 723 mmHg 17%
01:00 +17°C° 0 mm 2 mps 723 mmHg 17%
02:00 +17°C° 0 mm 2 mps 722 mmHg 18%
03:00 +16°C° 0 mm 1 mps 722 mmHg 19%
04:00 +16°C° 0 mm 2 mps 722 mmHg 18%
05:00 +16°C° 0 mm 2 mps 722 mmHg 18%
06:00 +16°C° 0 mm 2 mps 722 mmHg 18%
07:00 +19°C° 0 mm 2 mps 723 mmHg 15%
08:00 +21°C° 0 mm 3 mps 724 mmHg 13%
09:00 +25°C° 0 mm 3 mps 724 mmHg 11%
10:00 +27°C° 0 mm 3 mps 724 mmHg 10%
11:00 +29°C° 0 mm 3 mps 724 mmHg 10%
12:00 +32°C° 0 mm 4 mps 723 mmHg 9%
13:00 +33°C° 0 mm 3 mps 723 mmHg 9%
14:00 +34°C° 0 mm 3 mps 722 mmHg 9%
15:00 +35°C° 0 mm 3 mps 721 mmHg 9%
16:00 +33°C° 0 mm 4 mps 721 mmHg 10%
17:00 +32°C° 0 mm 4 mps 721 mmHg 11%
18:00 +29°C° 0 mm 4 mps 721 mmHg 11%
19:00 +28°C° 0 mm 5 mps 722 mmHg 12%
20:00 +27°C° 0 mm 5 mps 722 mmHg 12%
21:00 +26°C° 0 mm 6 mps 722 mmHg 13%
22:00 +24°C° 0 mm 6 mps 722 mmHg 13%
23:00 +23°C° 0 mm 5 mps 722 mmHg 14%
Show more